Location: Waco, TX
(31.5480°N, 97.1670°W)
Time: 12:06:39
(UTC-06:00)

ISS - Pass Details

Date: 09 February 2018
Orbit: 402 x 407 km, 51.6° (Epoch: 25 February)

Event Time Altitude Azimuth Distance (km) Brightness Sun altitude
Rises 13:48:14 0° 263° (W) 2,307 0.3 41.4°
Reaches altitude 10° 13:50:57 10° 288° (WNW) 1,451 -0.9 41.2°
Maximum altitude 13:52:56 15° 326° (NW) 1,182 -1.6 41.0°
Drops below altitude 10° 13:54:57 10° 4° (N) 1,453 -1.4 40.8°
Sets 13:57:40 0° 28° (NNE) 2,315 -0.5 40.6°
